TimePDT,TemperatureF,Dew PointF,Humidity,Sea Level PressureIn,VisibilityMPH,Wind Direction,Wind SpeedMPH,Gust SpeedMPH,PrecipitationIn,Events,Conditions,WindDirDegrees,DateUTC
12:53 AM,66.0,51.1,59,30.04,10.0,NNW,5.8,-,N/A,,Clear,330,2013-07-10 07:53:00
1:53 AM,64.0,51.1,63,30.04,10.0,NNW,3.5,-,N/A,,Clear,340,2013-07-10 08:53:00
2:53 AM,61.0,52.0,72,30.05,10.0,NNW,4.6,-,N/A,,Clear,330,2013-07-10 09:53:00
3:53 AM,60.1,52.0,75,30.05,10.0,NNW,6.9,-,N/A,,Clear,330,2013-07-10 10:53:00
4:53 AM,57.9,51.1,78,30.05,10.0,NNW,4.6,-,N/A,,Clear,330,2013-07-10 11:53:00
5:53 AM,57.0,50.0,77,30.06,10.0,Variable,4.6,-,N/A,,Clear,0,2013-07-10 12:53:00
6:53 AM,57.9,51.1,78,30.07,10.0,Calm,Calm,-,N/A,,Clear,0,2013-07-10 13:53:00
7:53 AM,61.0,52.0,72,30.07,10.0,NNW,6.9,-,N/A,,Partly Cloudy,340,2013-07-10 14:53:00
8:53 AM,62.1,52.0,70,30.08,10.0,NNW,4.6,-,N/A,,Partly Cloudy,330,2013-07-10 15:53:00
9:53 AM,64.9,53.1,65,30.08,10.0,Variable,3.5,-,N/A,,Partly Cloudy,0,2013-07-10 16:53:00
10:53 AM,66.9,53.1,61,30.06,10.0,North,6.9,-,N/A,,Clear,350,2013-07-10 17:53:00
11:53 AM,71.1,53.1,53,30.05,10.0,NNW,6.9,-,N/A,,Clear,330,2013-07-10 18:53:00
12:53 PM,73.9,54.0,50,30.03,10.0,NNW,8.1,-,N/A,,Partly Cloudy,330,2013-07-10 19:53:00
1:53 PM,75.9,54.0,46,30.01,10.0,NNW,11.5,-,N/A,,Clear,330,2013-07-10 20:53:00
2:53 PM,77.0,55.0,47,29.99,10.0,NNW,9.2,-,N/A,,Partly Cloudy,330,2013-07-10 21:53:00
3:53 PM,79.0,53.1,40,29.97,10.0,NNW,9.2,-,N/A,,Scattered Clouds,330,2013-07-10 22:53:00
4:53 PM,79.0,55.0,44,29.96,10.0,NNW,9.2,16.1,N/A,,Scattered Clouds,340,2013-07-10 23:53:00
5:53 PM,78.1,51.1,39,29.94,10.0,North,10.4,-,N/A,,Partly Cloudy,350,2013-07-11 00:53:00
6:53 PM,75.9,54.0,46,29.94,10.0,NNW,10.4,17.3,N/A,,Partly Cloudy,330,2013-07-11 01:53:00
7:53 PM,72.0,51.1,48,29.95,10.0,NW,13.8,17.3,N/A,,Partly Cloudy,320,2013-07-11 02:53:00
8:53 PM,66.9,48.9,52,29.97,10.0,NW,11.5,16.1,N/A,,Partly Cloudy,320,2013-07-11 03:53:00
9:53 PM,63.0,48.0,58,29.99,10.0,NW,9.2,-,N/A,,Partly Cloudy,320,2013-07-11 04:53:00
10:53 PM,59.0,46.0,62,30.01,10.0,NW,12.7,18.4,N/A,,Clear,320,2013-07-11 05:53:00
11:53 PM,57.9,46.0,65,30.03,10.0,NW,11.5,18.4,N/A,,Clear,320,2013-07-11 06:53:00